Regional Weather Roundup
Issued by NWS

Home | Current Version | Previous Version | Graphics & Text | Print | Product List | Glossary On
Versions: 1 2 3 4 5 6 7 8 9 10 11 12 13 14 15 16 17 18 19 20 21 22 23 24 25 26 27 28 29 30 31 32 33 34 35 36 37 38 39 40 41 42 43 44 45 46 47 48 49 50
000
ASUS43 KLMK 162102
RWRKY
KENTUCKY REGIONAL WEATHER ROUNDUP
NATIONAL WEATHER SERVICE LOUISVILLE KY
500 PM EDT WED AUG 16 2017

NOTE "FAIR" INDICATES FEW OR NO CLOUDS BELOW 12,000 FEET
WITH NO SIGNIFICANT WEATHER AND/OR OBSTRUCTIONS TO VISIBILITY.

KYZ001>023-026-027-061>063-070>075-162200-
WESTERN AND SOUTH CENTRAL KENTUCKY

CITY           SKY/WX    TMP DP  RH WIND       PRES   REMARKS
PADUCAH        MOSUNNY   91  73  55 SW8       29.92S HX  99
HENDERSON      PTSUNNY   85  76  74 SE6       29.93F HX  94
OWENSBORO      MOSUNNY   89  73  59 S7        29.95F HX  97
HOPKINSVILLE   MOSUNNY   90  74  59 SW12      29.95F HX 100
BOWLING GREEN  HVY RAIN  79  75  87 SW3       30.00R FOG
GLASGOW        MOSUNNY   86  73  65 W5        30.00S HX  93
$$

KYZ024-025-028>034-038-045-046-053-162200-
NORTH CENTRAL KENTUCKY

CITY           SKY/WX    TMP DP  RH WIND       PRES   REMARKS
LOUISVILLE/SDF PTSUNNY   90  70  51 VRB7      29.95F HX  95
LOUISVILLE/LOU MOSUNNY   89  72  56 S8        29.96F HX  96
FORT KNOX      PTSUNNY   87  70  56 S3        29.96F HX  92
$$

KYZ035>037-039>044-047>052-055>060-089>105-162200-
NORTHEAST KENTUCKY

CITY           SKY/WX    TMP DP  RH WIND       PRES   REMARKS
LEXINGTON      MOSUNNY   88  71  57 SW7       30.00F HX  94
COVINGTON      MOSUNNY   90  70  51 W5        29.97F HX  95
FRANKFORT      MOSUNNY   87  69  54 SW6       29.98F HX  91
$$

KYZ054-064>069-076>088-106>120-162200-
SOUTHEAST KENTUCKY

CITY           SKY/WX    TMP DP  RH WIND       PRES   REMARKS
JACKSON        MOSUNNY   82  72  71 CALM      30.04F
LONDON         MOSUNNY   84  71  65 W7        30.03F
SOMERSET       NOT AVBL
MIDDLESBORO    PTSUNNY   88  73  61 SW5       30.02F HX  96
MONTICELLO     PTCLDY    88  75  65 W14       30.03F HX  97
$$





USA.gov is the U.S. government's official web portal to all federal, state and local government web resources and services.